CW3766 Weather Reports


Display with metric or nautical units.
time (UTC)temp
F
wind
direction
speed
MPH
gust
MPH
rain 1hr
in
rain 24hr
in
rain mn
in
humidity
%
barometer
mb
20260507150602 56 57 2.0 3.0 0.00 0.00 0.00 55 1011.7
20260507145602 55 49 0.0 2.0 0.00 0.00 0.00 58 1011.9
20260507145102 55 264 1.0 3.0 0.00 0.00 0.00 55 1012.0
20260507144602 55 25 1.0 3.0 0.00 0.00 0.00 56 1012.1
20260507144103 55 357 2.0 5.0 0.00 0.00 0.00 58 1012.1
20260507143603 55 2 2.0 3.0 0.00 0.00 0.00 57 1012.2
20260507143102 55 16 2.0 3.0 0.00 0.00 0.00 57 1012.3
20260507142602 54 353 2.0 3.0 0.00 0.00 0.00 59 1012.2
20260507142103 54 24 1.0 5.0 0.00 0.00 0.00 57 1012.2
20260507141602 54 28 3.0 6.0 0.00 0.00 0.00 57 1012.3
20260507141103 54 0 2.0 3.0 0.00 0.00 0.00 58 1012.4
20260507140603 54 34 2.0 5.0 0.00 0.00 0.00 57 1012.4
20260507140103 54 45 2.0 5.0 0.00 0.00 0.00 58 1012.4
20260507135603 54 1 1.0 2.0 0.00 0.00 0.00 58 1012.4
20260507134603 54 358 1.0 3.0 0.00 0.00 0.00 58 1012.7
20260507134103 54 323 2.0 3.0 0.00 0.00 0.00 57 1012.8
20260507133603 54 5 1.0 5.0 0.00 0.00 0.00 59 1012.6
20260507133103 54 20 2.0 5.0 0.00 0.00 0.00 60 1012.7
20260507132102 54 315 0.0 3.0 0.00 0.00 0.00 65 1012.6
20260507131603 54 3 1.0 5.0 0.00 0.00 0.00 65 1012.5
20260507131102 54 20 1.0 2.0 0.00 0.00 0.00 68 1012.5
20260507130603 54 0 1.0 2.0 0.00 0.00 0.00 67 1012.5
20260507125602 54 330 1.0 2.0 0.00 0.00 0.00 68 1012.5
20260507125103 54 301 1.0 3.0 0.00 0.00 0.00 67 1012.4
20260507124602 54 353 2.0 3.0 0.00 0.00 0.00 67 1012.4
20260507124102 54 347 1.0 3.0 0.00 0.00 0.00 68 1012.4
20260507123603 54 15 1.0 5.0 0.00 0.00 0.00 68 1012.5
20260507122603 54 18 1.0 3.0 0.00 0.00 0.00 70 1012.5
20260507122103 54 355 0.0 3.0 0.00 0.00 0.00 71 1012.5
20260507121603 54 37 1.0 2.0 0.00 0.00 0.00 72 1012.5
20260507115603 55 26 1.0 3.0 0.00 0.00 0.00 75 1012.4
20260507115103 55 21 1.0 2.0 0.00 0.00 0.00 73 1012.4
20260507113602 55 9 2.0 3.0 0.00 0.00 0.00 73 1012.0
20260507112602 55 14 2.0 3.0 0.00 0.00 0.00 73 1012.0
20260507112103 55 357 2.0 5.0 0.00 0.00 0.00 73 1011.9
20260507111603 55 314 1.0 3.0 0.00 0.00 0.00 73 1011.9
20260507111103 55 353 1.0 3.0 0.00 0.00 0.00 72 1012.0
20260507110602 55 0 1.0 3.0 0.00 0.00 0.00 72 1011.8
20260507110103 55 7 1.0 6.0 0.00 0.00 0.00 72 1011.8
20260507105603 55 31 2.0 5.0 0.00 0.00 0.00 71 1011.9
20260507105102 55 29 2.0 5.0 0.00 0.00 0.00 71 1012.0
20260507104602 55 28 2.0 6.0 0.00 0.00 0.00 70 1011.8
20260507104102 55 25 3.0 8.0 0.00 0.00 0.00 70 1011.8
20260507103602 55 15 2.0 5.0 0.00 0.00 0.00 71 1011.7
20260507103103 55 10 1.0 6.0 0.00 0.00 0.00 73 1011.7
20260507102103 55 31 1.0 3.0 0.00 0.00 0.00 73 1011.6
20260507101603 55 22 2.0 6.0 0.00 0.00 0.00 75 1011.7
20260507100602 55 11 2.0 6.0 0.00 0.00 0.00 78 1011.5
20260507095603 55 36 2.0 5.0 0.00 0.00 0.00 81 1011.5
20260507095103 55 29 2.0 5.0 0.00 0.00 0.00 81 1011.6
20260507094603 55 33 2.0 5.0 0.00 0.00 0.00 80 1011.4
20260507093603 55 338 1.0 3.0 0.00 0.00 0.00 80 1011.5
20260507092603 55 24 1.0 3.0 0.00 0.00 0.00 79 1011.4
20260507092103 55 0 1.0 3.0 0.00 0.00 0.00 79 1011.2
20260507091603 55 7 2.0 5.0 0.00 0.00 0.00 78 1011.0
20260507091102 55 25 1.0 3.0 0.00 0.00 0.00 80 1011.2
20260507090603 55 22 1.0 3.0 0.00 0.00 0.00 80 1011.2
20260507085103 55 328 0.0 2.0 0.00 0.00 0.00 84 1011.4
20260507083603 55 336 0.0 2.0 0.00 0.00 0.00 81 1011.2
20260507083102 55 7 1.0 3.0 0.00 0.00 0.00 83 1011.2
20260507082602 55 349 1.0 3.0 0.00 0.00 0.00 82 1011.3
20260507082102 55 19 2.0 3.0 0.00 0.00 0.00 81 1011.3
20260507081602 55 335 2.0 6.0 0.00 0.00 0.00 83 1011.2
20260507080603 55 324 2.0 3.0 0.00 0.00 0.00 82 1011.1
20260507080103 55 329 1.0 3.0 0.00 0.00 0.00 82 1010.9
20260507075103 55 324 2.0 5.0 0.00 0.00 0.00 82 1010.6
20260507074602 55 6 2.0 3.0 0.00 0.00 0.00 82 1010.6
20260507074103 55 12 2.0 3.0 0.00 0.00 0.00 83 1010.7
20260507073603 55 31 0.0 3.0 0.00 0.00 0.00 84 1010.8
20260507073103 55 328 1.0 5.0 0.00 0.00 0.00 82 1010.7
20260507072604 55 343 2.0 7.0 0.00 0.00 0.00 82 1010.6
20260507072103 55 4 2.0 6.0 0.00 0.00 0.00 82 1010.5
20260507071603 55 359 1.0 5.0 0.00 0.00 0.00 83 1010.6
20260507071102 55 38 3.0 6.0 0.00 0.00 0.00 81 1010.7
20260507070603 55 349 3.0 8.0 0.00 0.00 0.00 81 1010.6
20260507065603 56 0 1.0 6.0 0.00 0.00 0.00 83 1010.6
20260507065103 56 12 2.0 7.0 0.00 0.00 0.00 82 1010.6
20260507064602 56 359 3.0 8.0 0.00 0.00 0.00 82 1010.8
20260507064103 56 4 2.0 7.0 0.00 0.00 0.00 83 1010.8
20260507063604 56 355 2.0 5.0 0.00 0.00 0.00 85 1010.8
20260507061604 56 351 2.0 5.0 0.00 0.00 0.00 87 1010.9
20260507055603 56 330 2.0 8.0 0.00 0.00 0.00 89 1010.5
20260507055103 56 17 3.0 5.0 0.00 0.00 0.00 89 1010.6
20260507054603 56 2 2.0 6.0 0.00 0.00 0.00 89 1010.8
20260507054102 56 328 2.0 6.0 0.00 0.00 0.00 89 1010.6
20260507053603 56 358 2.0 8.0 0.00 0.00 0.00 89 1010.6
20260507053103 57 6 2.0 3.0 0.00 0.00 0.00 90 1011.0
20260507052603 57 320 0.0 7.0 0.00 0.00 0.00 90 1010.8
20260507052103 57 3 1.0 3.0 0.00 0.00 0.00 90 1010.7
20260507051603 57 356 1.0 2.0 0.00 0.00 0.00 90 1010.7
20260507051103 57 331 1.0 2.0 0.00 0.00 0.00 90 1010.6
20260507050603 57 319 1.0 3.0 0.00 0.00 0.00 89 1010.3
20260507045603 57 350 1.0 3.0 0.00 0.00 0.00 90 1010.5
20260507045103 57 44 1.0 5.0 0.00 0.00 0.00 90 1010.9
20260507044603 57 338 2.0 3.0 0.00 0.00 0.00 89 1010.9
20260507044104 58 309 2.0 5.0 0.00 0.00 0.00 89 1010.6
20260507043103 58 322 1.0 3.0 0.00 0.00 0.00 87 1010.8
20260507042603 59 24 2.0 8.0 0.00 0.00 0.00 86 1010.9
20260507041603 60 17 3.0 9.0 0.00 0.00 0.00 82 1010.8
20260507041103 61 334 3.0 8.0 0.00 0.00 0.00 80 1010.7
20260507040604 61 354 3.0 7.0 0.00 0.00 0.00 80 1010.5
20260507040103 61 1 3.0 7.0 0.00 0.00 0.00 80 1010.3
20260507035603 61 341 3.0 6.0 0.00 0.00 0.00 80 1010.2
20260507035104 61 18 3.0 6.0 0.00 0.00 0.00 80 1010.1
20260507034603 61 21 4.0 8.0 0.00 0.00 0.00 81 1010.2
20260507034103 61 348 4.0 7.0 0.00 0.00 0.00 81 1010.1
20260507033603 61 15 5.0 8.0 0.00 0.00 0.00 81 1010.1
20260507033103 61 29 2.0 7.0 0.00 0.00 0.00 83 1010.3
20260507032603 62 6 4.0 8.0 0.00 0.00 0.00 82 1010.1
20260507031603 62 31 3.0 7.0 0.00 0.00 0.00 81 1010.4
20260507031103 62 26 2.0 7.0 0.00 0.00 0.00 82 1010.3
20260507030603 62 10 2.0 5.0 0.00 0.00 0.00 82 1010.1
20260507030104 62 326 2.0 6.0 0.00 0.00 0.00 81 1009.9
20260507025603 63 25 3.0 6.0 0.00 0.00 0.00 81 1009.6
20260507025103 63 0 3.0 7.0 0.00 0.00 0.00 81 1009.3
20260507024603 63 12 3.0 7.0 0.00 0.00 0.00 82 1009.2
20260507024103 63 24 5.0 8.0 0.00 0.00 0.00 83 1009.6
20260507023603 64 35 3.0 8.0 0.00 0.00 0.00 85 1009.7
20260507023103 64 341 2.0 5.0 0.00 0.00 0.00 86 1009.7
20260507022603 64 349 2.0 6.0 0.00 0.00 0.00 87 1009.3
20260507022103 64 10 2.0 6.0 0.00 0.00 0.00 86 1009.3
20260507021603 64 25 3.0 7.0 0.00 0.00 0.00 86 1009.3
20260507021103 64 0 1.0 5.0 0.00 0.00 0.00 87 1009.1
20260507020103 64 338 0.0 3.0 0.00 0.00 0.00 88 1009.2
20260507015603 64 7 1.0 3.0 0.00 0.00 0.00 88 1009.2
20260507015104 64 15 0.0 3.0 0.00 0.00 0.00 88 1009.2
20260507014603 64 353 0.0 5.0 0.00 0.00 0.00 88 1009.1
20260507014103 64 7 1.0 6.0 0.00 0.00 0.00 87 1009.0
20260507013604 65 7 1.0 3.0 0.00 0.00 0.00 88 1009.0
20260507012603 65 11 2.0 5.0 0.00 0.00 0.00 88 1009.1
20260507012103 65 37 1.0 3.0 0.00 0.00 0.00 89 1009.3
20260507011603 65 1 1.0 3.0 0.00 0.00 0.00 89 1009.4
20260507011103 65 356 2.0 6.0 0.00 0.00 0.00 89 1009.4
20260507010603 65 349 0.0 3.0 0.00 0.00 0.00 91 1009.3
20260507005603 65 7 1.0 2.0 0.00 0.00 0.00 91 1008.9
20260507004603 65 15 0.0 2.0 0.00 0.00 0.00 90 1008.8
20260507004103 65 338 0.0 2.0 0.00 0.00 0.00 90 1008.8
20260507003103 66 28 1.0 2.0 0.00 0.00 0.00 90 1008.7
20260507002604 66 322 0.0 0.0 0.00 0.00 0.00 89 1008.5
20260507002104 66 322 0.0 0.0 0.00 0.00 0.00 89 1008.6
20260507001604 67 322 0.0 2.0 0.00 0.00 0.00 89 1008.5
20260507000603 67 347 1.0 2.0 0.00 0.00 0.00 88 1008.4
20260506234604 69 6 0.0 0.0 0.00 0.00 0.00 83 1008.1
20260506233603 69 354 0.0 2.0 0.00 0.00 0.00 81 1007.9
20260506233103 70 287 1.0 2.0 0.00 0.00 0.00 80 1007.8
20260506232603 70 314 0.0 2.0 0.00 0.00 0.00 80 1007.7
20260506232103 70 305 0.0 2.0 0.00 0.00 0.00 80 1007.7
20260506231604 70 221 3.0 6.0 0.00 0.00 0.00 79 1007.6
20260506230603 70 190 2.0 3.0 0.00 0.00 0.00 78 1007.4
20260506230103 70 170 3.0 7.0 0.00 0.00 0.00 78 1007.4
20260506225604 70 191 1.0 5.0 0.00 0.00 0.00 78 1007.5
20260506225103 70 179 3.0 6.0 0.00 0.00 0.00 78 1007.5
20260506224603 70 212 3.0 10.0 0.00 0.00 0.00 78 1007.4
20260506224103 70 230 2.0 8.0 0.00 0.00 0.00 78 1007.4
20260506223604 71 213 3.0 8.0 0.00 0.00 0.00 77 1007.3
20260506223104 70 202 2.0 8.0 0.00 0.00 0.00 77 1007.2
20260506222603 70 187 5.0 9.0 0.00 0.00 0.00 77 1007.4
20260506222103 70 177 6.0 10.0 0.00 0.00 0.00 78 1007.4
20260506221603 70 196 2.0 9.0 0.00 0.00 0.00 78 1007.4
20260506221104 70 216 4.0 9.0 0.00 0.00 0.00 78 1007.3
20260506220603 70 194 4.0 9.0 0.00 0.00 0.00 78 1007.2
20260506215603 70 180 3.0 9.0 0.00 0.00 0.00 78 1007.2
20260506215103 70 189 2.0 9.0 0.00 0.00 0.00 79 1007.4
20260506214603 70 211 3.0 9.0 0.00 0.00 0.00 78 1007.3
20260506214104 70 237 3.0 8.0 0.00 0.00 0.00 78 1007.3
20260506213603 70 199 4.0 12.0 0.00 0.00 0.00 78 1007.3
20260506213104 70 227 5.0 13.0 0.00 0.00 0.00 79 1007.3
20260506212604 70 217 6.0 13.0 0.00 0.00 0.00 79 1007.2
20260506211603 70 196 4.0 12.0 0.00 0.00 0.00 79 1007.2
20260506211103 70 194 6.0 14.0 0.00 0.00 0.00 78 1007.3
20260506210104 70 216 6.0 14.0 0.00 0.00 0.00 78 1007.1
20260506205603 70 217 3.0 8.0 0.00 0.00 0.00 77 1007.1
20260506204603 70 211 5.0 12.0 0.00 0.00 0.00 78 1006.8
20260506204104 70 217 5.0 14.0 0.00 0.00 0.00 77 1006.7
20260506203604 70 189 5.0 8.0 0.00 0.00 0.00 78 1006.8
20260506202603 69 252 3.0 10.0 0.00 0.00 0.00 79 1006.9
20260506202103 69 184 5.0 13.0 0.00 0.00 0.00 79 1006.9
20260506201603 69 204 4.0 12.0 0.00 0.00 0.00 80 1006.9
20260506201104 69 194 6.0 14.0 0.00 0.00 0.00 80 1007.0
20260506200603 69 218 5.0 15.0 0.00 0.00 0.00 79 1007.1
20260506195103 68 181 7.0 15.0 0.00 0.00 0.00 80 1007.2
20260506194604 68 187 6.0 14.0 0.00 0.00 0.00 80 1007.2
20260506194103 68 202 10.0 16.0 0.00 0.00 0.00 80 1007.2
20260506193604 68 222 8.0 17.0 0.00 0.00 0.00 80 1007.1
20260506193103 68 222 6.0 14.0 0.00 0.00 0.00 80 1007.1
20260506192603 68 230 6.0 16.0 0.00 0.00 0.00 80 1007.2
20260506192104 68 214 6.0 15.0 0.00 0.00 0.00 80 1007.3
20260506191604 67 215 4.0 12.0 0.00 0.00 0.00 81 1007.3
20260506191103 68 225 5.0 13.0 0.00 0.00 0.00 80 1007.4
20260506190603 68 190 6.0 14.0 0.00 0.00 0.00 80 1007.5
20260506185603 67 185 7.0 16.0 0.00 0.00 0.00 81 1007.6
20260506185104 67 196 9.0 14.0 0.00 0.00 0.00 81 1007.6
20260506184604 67 175 5.0 13.0 0.00 0.00 0.00 82 1007.8
20260506184103 67 194 6.0 10.0 0.00 0.00 0.00 82 1007.9
20260506183104 66 188 6.0 14.0 0.00 0.00 0.00 82 1008.0
20260506182604 66 200 6.0 12.0 0.00 0.00 0.00 82 1008.0
20260506182103 66 193 3.0 14.0 0.00 0.00 0.00 82 1007.9
20260506181604 66 195 6.0 14.0 0.00 0.00 0.00 82 1008.0
20260506181104 66 206 5.0 13.0 0.00 0.00 0.00 82 1008.2
20260506180603 66 187 5.0 12.0 0.00 0.00 0.00 83 1008.1
20260506180103 65 201 7.0 14.0 0.00 0.00 0.00 83 1008.1
20260506175104 65 198 5.0 14.0 0.00 0.00 0.00 83 1008.0
20260506174604 65 182 4.0 16.0 0.00 0.00 0.00 83 1008.2
20260506174103 65 233 6.0 16.0 0.00 0.00 0.00 83 1008.2
20260506173603 65 201 6.0 16.0 0.00 0.00 0.00 83 1008.2
20260506173104 65 213 5.0 12.0 0.00 0.00 0.00 84 1008.3
20260506172603 65 178 5.0 12.0 0.00 0.00 0.00 84 1008.4
20260506172103 65 222 6.0 15.0 0.00 0.00 0.00 84 1008.5
20260506171603 65 186 6.0 15.0 0.00 0.00 0.00 84 1008.4
20260506171103 64 179 6.0 12.0 0.00 0.00 0.00 85 1008.4
20260506170603 64 199 3.0 10.0 0.00 0.00 0.00 85 1008.4
20260506165603 64 189 6.0 13.0 0.00 0.00 0.00 86 1008.4
20260506165104 64 206 6.0 12.0 0.00 0.00 0.00 86 1008.5
20260506164604 64 192 5.0 10.0 0.00 0.00 0.00 86 1008.5
20260506164104 64 188 5.0 13.0 0.00 0.00 0.00 87 1008.5
20260506163603 63 204 7.0 17.0 0.00 0.00 0.00 87 1008.6
20260506163104 63 174 6.0 17.0 0.00 0.00 0.00 87 1008.8
20260506162603 63 225 7.0 14.0 0.00 0.00 0.00 88 1008.7
20260506162104 63 185 6.0 16.0 0.00 0.00 0.00 88 1008.6
20260506161603 63 184 9.0 20.0 0.00 0.00 0.00 88 1008.7
20260506161104 62 184 10.0 18.0 0.00 0.00 0.00 89 1008.8
20260506160603 62 204 7.0 16.0 0.00 0.00 0.00 89 1008.7
20260506160104 62 193 7.0 13.0 0.00 0.00 0.00 90 1008.7
20260506155604 62 176 7.0 17.0 0.00 0.00 0.00 90 1008.7
20260506155104 62 196 9.0 18.0 0.00 0.00 0.00 90 1008.7
20260506154603 62 188 7.0 13.0 0.00 0.00 0.00 90 1008.7
20260506154103 61 193 6.0 18.0 0.00 0.00 0.00 91 1008.9
20260506153603 61 212 5.0 16.0 0.00 0.00 0.00 91 1008.7
20260506152604 61 182 6.0 17.0 0.00 0.00 0.00 92 1009.1
20260506152104 61 179 6.0 13.0 0.00 0.00 0.00 92 1009.2
20260506151604 60 172 6.0 13.0 0.00 0.00 0.00 92 1009.0